Regional Weather Roundup
Issued by NWS Charleston, WV

Home | Current Version | Previous Version | Graphics & Text | Print | Product List | Glossary On
Versions: 1 2 3 4 5 6 7 8 9 10 11 12 13 14 15 16 17 18 19 20 21 22 23 24 25 26 27 28 29 30 31 32 33 34 35 36 37 38 39 40 41 42 43 44 45 46 47 48 49 50
000
ASUS41 KRLX 230310
RWRRLX
West Virginia Regional Weather Roundup
National Weather Service Charleston WV
1000 PM EST SAT NOV 22 2014

Note: "fair" indicates few or no clouds below 12,000 feet with no
significant weather and/or obstructions to visibility.

WVZ003-230400-
Northern Panhandle of West Virginia

CITY           SKY/WX    TMP DP  RH WIND       PRES   REMARKS
WHEELING       CLOUDY    50  28  42 S12       30.10S
$$

WVZ009-230400-
Northwest West Virginia

CITY           SKY/WX    TMP DP  RH WIND       PRES   REMARKS
PARKERSBURG    CLOUDY    52  27  38 S7        30.15F
$$

WVZ006-230400-
Western West Virginia

CITY           SKY/WX    TMP DP  RH WIND       PRES   REMARKS
HUNTINGTON     PTCLDY    51  24  34 S5        30.13F
$$

WVZ015-230400-
West Central West Virginia

CITY           SKY/WX    TMP DP  RH WIND       PRES   REMARKS
CHARLESTON     PTCLDY    49  24  37 S5        30.15F
$$

WVZ022-031-230400-
North Central West Virginia

CITY           SKY/WX    TMP DP  RH WIND       PRES   REMARKS
CLARKSBURG     CLOUDY    48  29  47 S3        30.16R
MORGANTOWN     CLOUDY    43  27  53 CALM      30.15R
$$

WVZ025-035-042-045-230400-
Southern West Virginia

CITY           SKY/WX    TMP DP  RH WIND       PRES   REMARKS
BECKLEY        CLEAR     44  16  32 SE10      30.19F
LOGAN            N/A     52  19  28 S6        30.17S
BLUEFIELD      CLEAR     43  16  33 E3        30.21F
LEWISBURG      CLEAR     30  22  69 CALM      30.23F
$$

WVZ047-230400-
Northern Mountains of West Virginia

CITY           SKY/WX    TMP DP  RH WIND       PRES   REMARKS
ELKINS         MOCLDY    31  28  89 CALM      30.19R
$$

WVZ052-230400-
Eastern Panhandle of West Virginia

CITY           SKY/WX    TMP DP  RH WIND       PRES   REMARKS
MARTINSBURG    PTCLDY    33  19  56 CALM      30.21S
PETERSBURG     PTCLDY    47  15  26 S14G20    30.20R
$$



USA.gov is the U.S. government's official web portal to all federal, state and local government web resources and services.